When you browse on this site, cookies collect data to enhance your experience and personalize the content and advertising you see.
Visit our Privacy Policy to learn more. By continuing to use the site, you agree to this use of cookies and data.
  • In Lithuania
  • List of Countries
  • For 7 days
  • Water Temperature
  • Satellite Maps
  • Weather Map
  • Weather Widgets
  • user-avatar
    Login

    Hourly Weather Fier

    Today, 12 December, Wednesday

    Time Temperature Precipitation Wind Pressure Humidity
    00:00 +3°C° 0 mm 3 mps 762 mmHg 65%
    01:00 +4°C° 0 mm 2 mps 762 mmHg 64%
    02:00 +4°C° 0 mm 2 mps 763 mmHg 63%
    03:00 +4°C° 0 mm 2 mps 763 mmHg 62%
    04:00 +4°C° 0 mm 2 mps 763 mmHg 61%
    05:00 +4°C° 0 mm 2 mps 763 mmHg 60%
    06:00 +4°C° 0 mm 2 mps 763 mmHg 59%
    07:00 +3°C° 0 mm 2 mps 763 mmHg 58%
    08:00 +5°C° 0 mm 2 mps 764 mmHg 51%
    09:00 +7°C° 0 mm 2 mps 764 mmHg 43%
    10:00 +8°C° 0 mm 2 mps 764 mmHg 36%
    11:00 +9°C° 0 mm 2 mps 764 mmHg 33%
    12:00 +9°C° 0 mm 2 mps 764 mmHg 30%
    13:00 +11°C° 0 mm 1 mps 764 mmHg 27%
    14:00 +10°C° 0 mm 1 mps 764 mmHg 31%
    15:00 +8°C° 0 mm 1 mps 764 mmHg 35%
    16:00 +7°C° 0 mm 1 mps 764 mmHg 39%
    17:00 +7°C° 0 mm 1 mps 764 mmHg 38%
    18:00 +5°C° 0 mm 2 mps 764 mmHg 38%
    19:00 +5°C° 0 mm 2 mps 764 mmHg 38%
    20:00 +4°C° 0 mm 2 mps 764 mmHg 38%
    21:00 +4°C° 0 mm 2 mps 765 mmHg 37%
    22:00 +3°C° 0 mm 3 mps 765 mmHg 37%
    23:00 +3°C° 0 mm 3 mps 765 mmHg 38%

    Tomorrow, 13 December, Thursday

    Time Temperature Precipitation Wind Pressure Humidity
    00:00 +3°C° 0 mm 3 mps 765 mmHg 38%
    01:00 +3°C° 0 mm 3 mps 765 mmHg 38%
    02:00 +4°C° 0 mm 3 mps 764 mmHg 38%
    03:00 +4°C° 0 mm 3 mps 764 mmHg 38%
    04:00 +4°C° 0 mm 3 mps 764 mmHg 39%
    05:00 +4°C° 0 mm 3 mps 763 mmHg 39%
    06:00 +5°C° 0 mm 3 mps 763 mmHg 39%
    07:00 +5°C° 0 mm 3 mps 763 mmHg 40%
    08:00 +7°C° 0 mm 3 mps 763 mmHg 42%
    09:00 +7°C° 0 mm 3 mps 763 mmHg 44%
    10:00 +8°C° 0 mm 3 mps 763 mmHg 46%
    11:00 +8°C° 0.1 mm 3 mps 762 mmHg 49%
    12:00 +9°C° 0.1 mm 3 mps 762 mmHg 52%
    13:00 +9°C° 0.1 mm 3 mps 761 mmHg 55%
    14:00 +8°C° 0 mm 3 mps 761 mmHg 59%
    15:00 +8°C° 0 mm 3 mps 761 mmHg 63%
    16:00 +7°C° 0 mm 2 mps 761 mmHg 67%
    17:00 +7°C° 0 mm 3 mps 761 mmHg 68%
    18:00 +7°C° 0 mm 3 mps 761 mmHg 70%
    19:00 +5°C° 0 mm 4 mps 761 mmHg 71%
    20:00 +5°C° 0 mm 4 mps 761 mmHg 72%
    21:00 +5°C° 0 mm 4 mps 761 mmHg 72%
    22:00 +5°C° 0 mm 4 mps 761 mmHg 73%
    23:00 +5°C° 0 mm 4 mps 761 mmHg 74%

    Day after tomorrow, 14 December, Friday

    Time Temperature Precipitation Wind Pressure Humidity
    00:00 +5°C° 0 mm 4 mps 761 mmHg 75%
    01:00 +5°C° 0 mm 5 mps 761 mmHg 75%
    02:00 +5°C° 0.3 mm 5 mps 760 mmHg 76%
    03:00 +6°C° 0.3 mm 5 mps 760 mmHg 78%
    04:00 +6°C° 0.3 mm 5 mps 760 mmHg 79%
    05:00 +6°C° 0.8 mm 5 mps 760 mmHg 79%
    06:00 +7°C° 0.8 mm 5 mps 760 mmHg 80%
    07:00 +7°C° 0.8 mm 5 mps 760 mmHg 81%
    08:00 +8°C° 0.5 mm 5 mps 760 mmHg 79%
    09:00 +9°C° 0.5 mm 5 mps 760 mmHg 77%
    10:00 +10°C° 0.5 mm 6 mps 760 mmHg 75%
    11:00 +10°C° 0.2 mm 6 mps 760 mmHg 74%
    12:00 +11°C° 0.2 mm 6 mps 759 mmHg 73%
    13:00 +13°C° 0.2 mm 6 mps 759 mmHg 72%
    14:00 +11°C° 0.1 mm 6 mps 759 mmHg 74%
    15:00 +11°C° 0.1 mm 6 mps 759 mmHg 77%
    16:00 +10°C° 0.1 mm 6 mps 759 mmHg 79%
    17:00 +9°C° 0.1 mm 6 mps 759 mmHg 80%
    18:00 +9°C° 0.1 mm 5 mps 759 mmHg 80%
    19:00 +8°C° 0.1 mm 5 mps 759 mmHg 80%
    20:00 +8°C° 0 mm 5 mps 759 mmHg 80%
    21:00 +8°C° 0 mm 5 mps 759 mmHg 80%
    22:00 +8°C° 0 mm 5 mps 759 mmHg 80%
    23:00 +8°C° 0 mm 5 mps 759 mmHg 80%

    15 December, Saturday

    Time Temperature Precipitation Wind Pressure Humidity
    00:00 +8°C° 0 mm 5 mps 759 mmHg 80%
    01:00 +8°C° 0 mm 5 mps 758 mmHg 80%
    02:00 +8°C° 0.1 mm 5 mps 758 mmHg 80%
    03:00 +8°C° 0.1 mm 5 mps 758 mmHg 80%
    04:00 +8°C° 0.1 mm 5 mps 758 mmHg 80%
    05:00 +8°C° 0.2 mm 4 mps 758 mmHg 80%
    06:00 +10°C° 0.2 mm 4 mps 758 mmHg 80%
    07:00 +10°C° 0.2 mm 4 mps 758 mmHg 81%
    08:00 +11°C° 0.1 mm 4 mps 758 mmHg 78%
    09:00 +11°C° 0.1 mm 3 mps 758 mmHg 76%
    10:00 +12°C° 0.1 mm 3 mps 758 mmHg 74%
    11:00 +13°C° 0 mm 3 mps 758 mmHg 71%
    12:00 +14°C° 0 mm 3 mps 758 mmHg 68%
    13:00 +16°C° 0 mm 3 mps 757 mmHg 66%
    14:00 +14°C° 0 mm 3 mps 757 mmHg 69%
    15:00 +14°C° 0 mm 2 mps 757 mmHg 72%
    16:00 +13°C° 0 mm 2 mps 758 mmHg 75%
    17:00 +13°C° 0 mm 2 mps 758 mmHg 76%
    18:00 +12°C° 0 mm 2 mps 758 mmHg 78%
    19:00 +12°C° 0 mm 2 mps 758 mmHg 79%
    20:00 +12°C° 0.1 mm 2 mps 759 mmHg 79%
    21:00 +10°C° 0.1 mm 3 mps 759 mmHg 79%
    22:00 +10°C° 0.1 mm 3 mps 759 mmHg 80%
    23:00 +10°C° 0.2 mm 3 mps 759 mmHg 79%

    16 December, Sunday

    Time Temperature Precipitation Wind Pressure Humidity
    00:00 +10°C° 0.2 mm 4 mps 759 mmHg 79%
    01:00 +10°C° 0.2 mm 4 mps 759 mmHg 78%
    02:00 +8°C° 0.6 mm 5 mps 759 mmHg 80%
    03:00 +8°C° 0.6 mm 5 mps 759 mmHg 81%
    04:00 +8°C° 0.6 mm 6 mps 759 mmHg 82%
    05:00 +8°C° 1.1 mm 5 mps 760 mmHg 84%
    06:00 +8°C° 1.1 mm 4 mps 760 mmHg 87%
    07:00 +8°C° 1.1 mm 4 mps 760 mmHg 89%
    08:00 +8°C° 0.5 mm 4 mps 761 mmHg 89%
    09:00 +10°C° 0.5 mm 4 mps 761 mmHg 90%
    10:00 +10°C° 0.5 mm 4 mps 761 mmHg 90%
    11:00 +10°C° 0.2 mm 4 mps 761 mmHg 87%
    12:00 +11°C° 0.2 mm 4 mps 761 mmHg 83%
    13:00 +12°C° 0.2 mm 4 mps 761 mmHg 80%
    14:00 +11°C° 0 mm 4 mps 761 mmHg 81%
    15:00 +10°C° 0 mm 5 mps 762 mmHg 83%
    16:00 +9°C° 0 mm 5 mps 762 mmHg 84%
    17:00 +9°C° 0 mm 5 mps 763 mmHg 85%
    18:00 +8°C° 0 mm 5 mps 763 mmHg 85%
    19:00 +8°C° 0 mm 5 mps 764 mmHg 85%
    20:00 +7°C° 0 mm 5 mps 764 mmHg 84%
    21:00 +7°C° 0 mm 5 mps 765 mmHg 83%
    22:00 +6°C° 0 mm 4 mps 765 mmHg 82%
    23:00 +6°C° 0 mm 4 mps 765 mmHg 81%

    17 December, Monday

    Time Temperature Precipitation Wind Pressure Humidity
    00:00 +6°C° 0 mm 4 mps 765 mmHg 80%
    01:00 +6°C° 0 mm 4 mps 765 mmHg 79%
    02:00 +7°C° 0 mm 3 mps 766 mmHg 79%
    03:00 +7°C° 0 mm 3 mps 766 mmHg 78%
    04:00 +7°C° 0 mm 3 mps 766 mmHg 78%
    05:00 +7°C° 0 mm 3 mps 766 mmHg 77%
    06:00 +7°C° 0 mm 3 mps 766 mmHg 77%
    07:00 +8°C° 0 mm 2 mps 766 mmHg 77%
    08:00 +10°C° 0 mm 2 mps 766 mmHg 72%
    09:00 +13°C° 0 mm 2 mps 766 mmHg 67%
    10:00 +14°C° 0 mm 1 mps 766 mmHg 63%
    11:00 +15°C° 0 mm 1 mps 766 mmHg 60%
    12:00 +16°C° 0 mm 1 mps 766 mmHg 58%
    13:00 +18°C° 0 mm 1 mps 765 mmHg 56%
    14:00 +16°C° 0 mm 1 mps 765 mmHg 62%
    15:00 +14°C° 0 mm 1 mps 765 mmHg 68%
    16:00 +13°C° 0 mm 1 mps 765 mmHg 73%
    17:00 +12°C° 0 mm 1 mps 766 mmHg 75%
    18:00 +12°C° 0 mm 1 mps 766 mmHg 77%
    19:00 +11°C° 0 mm 1 mps 766 mmHg 78%
    20:00 +11°C° 0 mm 1 mps 766 mmHg 79%
    21:00 +10°C° 0 mm 2 mps 766 mmHg 80%
    22:00 +10°C° 0 mm 2 mps 766 mmHg 81%
    23:00 +9°C° 0 mm 3 mps 766 mmHg 81%
    Show more